CAPE
11 0 0 0 0 4 1029 1638 1322 1232 1123 737 727 551 246 124 50 3 1 0 0 0 0 0 0 1 0 1 5 4 4 6 14 16 7 25 56 50 24 54 71 120 76
59 1 0 0 0 40 980 1013 1027 750 708 621 432 160 7 0 0 0 0 0 0 0 1 4 6 8 11 25 23 38 15 12 22 27 29 14 20 30 55 63 77 111 92
93 93 59 125 377 1097 783 686 744 717 514 325 110 1 0 0 0 0 0 0 0 7 17 23 25 25 33 34 27 27 13 23 26 36 35 14 9 7 25 119 71 72 63
324 558 811 1024 1091 872 722 642 517 316 114 32 0 0 0 0 0 0 0 10 22 28 41 38 22 29 35 35 21 19 41 49 34 29 21 5 15 20 27 12 15 14 12
766 824 892 888 759 715 546 435 225 126 36 3 0 0 0 0 0 15 11 18 23 37 40 31 35 43 20 11 0 11 28 13 17 15 12 6 3 11 5 19 9 28 31
597 539 575 526 482 453 403 240 98 47 2 0 0 0 0 2 0 0 0 4 35 34 33 47 49 56 43 7 3 0 0 0 2 2 4 2 1 0 18 25 26 12 24
134 355 314 46 1 5 9 19 45 50 24 6 0 2 11 54 2 0 0 0 10 42 35 31 27 34 29 37 3 0 7 5 2 6 11 14 15 6 12 3 25 99 80
3 0 0 0 0 0 0 17 52 61 57 31 56 66 72 38 0 0 0 0 8 76 36 42 31 38 10 5 0 0 13 25 15 32 20 0 2 5 6 9 3 14 73
0 0 0 0 2 0 21 32 33 77 106 72 75 39 142 66 0 0 0 5 36 54 33 31 30 38 0 0 0 4 4 4 22 16 3 0 0 0 0 1 2 9 16
0 5 37 70 1 9 5 41 84 65 87 62 85 65 42 30 0 0 0 0 17 29 27 9 13 3 2 0 0 0 0 1 18 0 0 10 3 25 4 4 3 24 25
0 3 19 5 0 5 34 76 73 57 80 85 36 29 9 26 1 0 0 0 9 5 27 23 8 0 0 0 0 0 0 0 0 0 0 20 16 15 39 52 30 22 34
0 12 11 21 27 76 80 77 69 77 29 27 5 25 5 27 3 0 0 0 0 0 7 15 2 0 0 0 0 0 0 0 12 8 28 20 24 8 9 45 34 27 50
35 39 26 46 14 45 58 62 24 20 9 6 5 5 23 40 18 0 0 0 0 0 0 0 0 0 0 0 0 0 0 3 0 1 2 13 14 9 27 43 25 2 14
41 30 23 16 25 35 22 39 19 2 9 15 4 17 2 0 0 0 0 0 0 0 0 0 0 0 0 2 2 2 2 0 0 2 6 3 2 1 38 17 1 2 5
0 3 16 11 23 30 8 5 2 0 0 20 35 13 2 0 0 0 0 0 0 0 0 11 2 2 0 0 0 0 1 2 5 6 4 2 1 15 15 4 0 0 0
24 19 8 1 29 1 13 17 0 0 0 0 0 0 0 0 0 0 0 0 0 0 0 1 0 2 1 1 6 13 3 0 9 6 1 1 4 1 1 0 0 0 12
56 27 31 10 21 19 10 13 69 0 0 0 0 0 0 0 0 0 0 0 0 0 11 13 5 1 8 5 21 7 1 0 8 11 0 0 0 0 1 1 0 0 7
23 0 23 18 8 8 18 27 67 65 26 1 0 0 0 0 0 0 0 0 10 7 5 14 4 2 3 10 16 1 4 1 0 7 5 14 2 0 1 1 1 3 21
10 8 7 3 0 2 13 8 9 14 37 3 1 0 0 0 0 0 0 6 12 11 8 6 7 7 2 1 11 15 4 4 10 4 10 13 1 3 1 1 1 3 6
0 0 0 17 6 6 12 9 25 22 13 25 40 36 44 0 0 31 3 6 8 7 6 9 5 3 1 0 9 8 10 2 0 6 7 5 6 3 2 3 2 3 2
3 7 0 5 7 17 28 33 33 40 21 24 47 26 0 0 17 12 20 12 7 2 2 14 6 4 1 5 1 1 0 0 0 0 0 4 10 6 4 4 5 4 7
8 1 2 21 13 17 4 14 17 24 25 13 23 23 0 11 19 9 7 10 15 9 5 9 10 6 3 3 2 3 4 0 0 0 0 3 7 0 1 1 8 6 2
16 11 23 11 27 12 24 30 3 0 1 0 0 1 0 8 4 3 16 17 14 3 0 0 1 5 9 6 5 2 0 0 0 0 1 1 6 0 0 0 0 0 0
2 3 1 3 6 5 1 0 0 0 5 0 1 9 9 5 6 5 0 0 0 0 0 0 0 2 6 10 0 0 0 0 0 0 0 23 3 0 0 0 0 0 0
0 0 4 9 7 0 0 0 0 3 5 4 6 0 0 3 1 0 0 0 0 1 0 1 3 1 3 6 0 0 0 0 0 0 0 21 20 2 9 0 0 0 6
0 0 0 1 1 4 4 2 1 1 1 1 0 0 0 2 2 4 1 2 1 0 1 0 0 0 1 3 0 0 0 0 0 0 0 14 17 14 5 2 0 1 1
CIN
-427 0 0 0 0 -49 -3 -8 -16 -1 -1 0 0 0 -6 -30 -41 -56 -12 0 0 0 0 0 0 -1 0 -1 -2 -2 -3 -2 -2 -2 -5 -2 -7 -2 -3 -3 -4 0 -6
-292 -232 0 0 0 -180 -6 -12 -4 -2 -1 0 0 -10 -6 0 0 0 0 0 0 0 -1 -1 -1 -2 -1 -2 -2 -7 -7 -17 -8 -3 -8 -8 -7 -5 -2 -3 -2 -7 -3
-305 -263 -302 -241 -64 -2 -9 -6 -2 0 0 -1 -5 -2 0 0 0 0 0 0 0 -1 -1 -2 -2 -1 -2 -2 -7 -6 -10 -11 -6 -1 -1 -3 -4 -7 -13 -2 -2 -3 -9
-101 -36 -14 0 -1 -7 -4 -2 -1 -7 -35 -31 0 0 0 0 0 0 -1 -1 -1 -2 -4 -4 -3 -2 -7 -14 -13 -5 -3 -3 -3 -3 -2 -8 -2 -3 -9 -3 -14 -14 -18
-5 -2 -1 0 -1 -1 -1 0 -3 -22 -27 -133 0 0 0 0 0 -2 -2 -1 -1 -2 -3 -1 -4 -10 -16 -22 -2 -3 -5 -3 -2 -2 -1 -2 -2 -1 -3 -2 -18 -5 -9
-12 -3 -2 -1 -1 -1 0 -7 -8 -11 -13 0 0 0 0 -2 0 0 0 -27 -15 -3 -1 -2 -2 -3 -11 -23 -29 0 0 0 -1 -1 -1 -1 -1 0 -3 -1 -5 -17 -5
-13 -1 -5 -14 -4 -34 -50 -25 -14 -18 -16 -20 0 -1 -1 -2 -60 0 0 0 -26 -6 -2 -6 -9 -9 -12 -6 -9 0 -7 -15 -12 -4 -1 -1 -1 -1 -2 -1 -1 0 -1
-6 0 0 0 0 0 0 -32 -13 -6 -1 -26 -2 -23 -6 -21 0 0 0 0 -42 -2 -2 -3 -9 -9 -30 -25 -4 0 -2 -1 -2 -7 -1 -1 -1 -1 -2 0 0 -7 -3
0 -8 0 0 -32 0 -12 -5 -5 -1 -4 -8 -5 -9 -5 -16 0 0 0 -51 -4 -4 -13 -17 -4 -5 0 0 0 -3 -1 -4 -2 -12 -17 0 0 0 0 -1 -1 -2 -1
0 -30 -12 -3 -1 -2 -2 -7 -12 -10 -3 -10 -2 -1 -6 -1 0 0 0 0 -4 -5 -7 -10 -9 -35 -89 -20 0 0 0 -1 -2 0 0 -10 -4 -18 -30 -36 -13 0 -1
0 -16 -2 -7 0 -2 -6 -8 -9 -3 -2 -1 -2 -4 -22 -18 -5 0 0 0 -1 -4 -2 -5 -6 0 0 0 0 0 0 0 0 0 0 -10 -9 -14 -6 -10 -9 -5 -1
0 -3 -2 -8 -10 -2 -2 -1 -1 -1 -3 -3 -16 -14 -2 -20 -51 0 0 0 0 0 -2 -2 -2 0 0 0 0 0 0 0 -2 -8 -9 -7 -7 -8 -19 -3 -9 -2 -2
-5 -6 -9 -3 -10 -17 -2 -1 -8 -3 -14 -3 -8 -14 -14 -11 -2 0 -4 0 0 0 0 0 0 0 0 0 0 -7 0 -11 -1 -4 -4 -2 -3 -16 -6 -5 -4 -2 -1
-32 -10 -10 -26 -24 -19 -17 -3 -3 -10 -2 -2 -4 -12 -24 0 0 0 0 0 0 0 0 -1 -1 -4 0 -14 -27 -22 -43 0 0 -13 -12 -17 -25 -24 -4 -1 0 0 -4
0 -31 -29 -17 -16 -8 -19 -17 -1 0 0 -16 -25 -35 -15 0 0 0 0 0 0 0 0 -8 -38 -19 0 0 0 0 -5 -5 -3 -2 -4 -3 -15 -7 -2 -1 0 0 0
-4 -5 -23 -11 -2 -4 -2 -22 0 0 0 0 0 0 0 0 0 0 0 0 0 0 0 -21 -4 -5 -6 -12 -6 -2 -8 -8 -4 -9 -25 -26 -1 -1 0 0 -1 0 0
-2 -2 -3 -11 -1 -2 -2 -2 -4 0 0 0 0 0 0 0 0 0 0 0 0 0 -3 -3 -2 -2 -3 -2 -3 -3 -6 -3 -4 -5 -3 -3 0 0 -8 0 0 0 0
-2 0 -2 -1 -1 -2 -1 -1 -5 -2 -3 0 0 0 0 0 0 0 0 0 -7 -1 -6 -3 -2 -13 -18 -3 -1 -2 -16 -2 -12 -2 -12 -1 -3 -2 0 0 0 0 0
-5 -3 -2 -1 -2 -2 -4 -11 -6 -3 -1 -27 -7 0 0 0 0 0 0 -7 -2 -5 -4 -3 -3 -3 -5 -6 -3 -3 -7 -7 -4 -17 -2 -1 -4 0 0 0 0 -1 0
0 0 0 -3 -14 -3 -2 -5 -2 -6 -3 -12 -4 -4 -2 -6 0 -2 -8 -4 -3 -3 -4 -3 -3 -3 -9 -2 -3 -2 -4 -2 -2 -4 -1 -4 0 0 0 -3 0 0 0
-7 -3 0 -7 -13 -1 -2 -2 -2 -8 -7 -15 -7 -16 0 0 -2 -6 -1 -1 -2 -3 -3 -2 -3 -4 -3 -4 -3 -4 0 0 0 0 0 -4 -2 0 0 -1 0 0 0
-7 -10 -5 -2 -2 -1 -2 -2 -8 -2 -2 -2 -3 -6 0 -2 -3 -4 -4 -6 -2 -1 -2 -2 -2 -2 -2 -2 -2 -1 0 0 0 0 0 -1 -3 -1 -2 -3 0 0 0
-5 -3 -4 -4 -2 -8 -3 -3 -1 -1 -7 -13 -9 -2 -4 -6 -6 -3 -1 -2 -1 -1 -2 0 -7 -2 -3 -3 -2 -1 0 0 0 0 0 -1 -3 0 0 0 0 0 -1
-2 -5 -19 -3 -2 -2 -1 0 0 -6 -4 -1 -4 -2 -2 -4 -3 -3 -1 -1 -1 -2 0 -3 -4 -3 -2 0 -1 0 0 0 0 0 0 -1 -13 0 0 0 0 0 0
0 -4 -3 -3 -4 -1 0 0 0 -3 -2 -2 -3 -4 -1 -1 -1 0 0 0 0 -4 -4 -2 -1 0 -1 -1 0 0 0 0 0 0 0 -1 0 -17 -2 0 0 0 -6
0 0 0 -1 -3 -3 -3 -2 -1 -4 -1 -2 -1 -1 -1 -2 -1 -1 -1 -1 -1 -1 0 0 0 0 -1 -1 0 0 0 0 0 0 0 -7 -1 -2 -5 -2 0 -4 -7
Wind_Speed
8 8 8 6 19 16 9 15 16 13 14 14 16 15 16 18 18 19 21 23 25 27 27 27 28 26 27 27 28 28 27 27 30 29 30 28 31 29 28 26 25 25 30
8 11 16 22 17 7 5 5 6 10 12 13 13 14 15 17 19 22 24 25 26 28 28 28 29 29 30 28 27 29 28 29 29 31 29 30 27 27 29 20 18 13 11
13 15 15 10 3 5 6 4 6 7 9 10 11 15 19 20 21 22 23 24 25 27 28 28 29 30 28 28 29 29 30 31 30 30 29 27 31 34 33 22 19 13 12
9 10 13 12 9 6 6 6 7 8 10 12 14 18 21 22 22 21 22 25 27 28 29 29 28 29 29 28 28 30 29 30 30 28 25 26 28 26 24 28 29 27 25
10 11 13 12 11 8 8 8 9 11 12 13 19 21 23 24 24 20 26 28 29 30 30 29 27 26 26 25 27 28 31 31 30 30 28 32 35 33 33 32 29 27 28
11 11 11 12 13 13 12 11 12 15 17 18 18 19 22 22 22 24 26 26 27 29 32 32 32 30 23 22 22 24 28 28 28 28 29 31 36 37 36 33 33 31 28
13 17 16 16 16 19 20 18 18 16 18 20 22 19 16 19 20 22 25 26 30 32 33 31 30 24 24 22 27 29 26 21 20 25 28 33 38 38 39 39 32 28 26
18 18 17 17 16 16 15 14 12 14 19 20 22 23 23 22 21 24 27 29 29 30 25 28 27 26 23 24 28 30 30 29 28 23 27 35 35 34 35 34 30 30 27
15 15 13 13 13 12 12 10 11 16 20 23 23 23 23 23 23 26 29 30 30 29 28 27 23 22 21 24 29 31 31 30 25 22 23 28 31 30 27 28 26 22 21
16 13 12 14 17 17 17 18 19 21 22 24 26 27 25 25 25 27 30 29 30 30 27 24 22 22 23 26 28 30 31 30 32 35 34 30 26 26 22 18 22 25 25
13 12 14 16 17 17 18 19 21 20 23 25 27 27 28 24 22 26 29 28 30 29 28 27 23 21 26 26 24 26 28 32 35 33 30 31 29 27 23 20 21 21 28
14 15 17 18 20 20 20 21 22 24 28 29 26 27 24 23 23 25 25 26 27 28 27 25 27 28 26 25 22 22 23 32 31 31 29 29 28 29 30 31 34 33 32
16 18 18 19 20 21 23 24 26 29 29 26 27 24 24 21 22 23 24 27 30 30 28 30 24 19 12 7 23 26 31 32 32 31 31 30 32 32 30 31 32 33 33
17 17 18 20 23 25 26 25 27 26 24 25 24 22 20 22 25 28 30 32 33 31 30 27 26 21 27 26 28 30 32 32 33 32 32 33 34 34 32 31 35 31 30
17 18 21 24 26 26 24 23 24 23 21 16 18 16 18 20 24 26 28 30 32 30 33 29 31 31 32 33 33 32 30 31 32 33 31 33 34 33 35 35 34 33 26
20 22 23 25 23 23 21 19 23 21 19 18 19 19 19 20 20 23 25 25 21 9 27 30 30 30 31 31 31 33 33 34 34 31 29 29 30 33 31 32 31 29 24
22 20 21 22 20 19 21 19 18 19 17 17 18 18 19 19 20 23 25 23 12 13 27 30 30 31 32 32 33 33 31 33 34 31 26 15 14 26 7 8 9 17 21
19 20 18 19 18 18 20 20 18 16 15 15 15 16 16 18 20 20 21 18 25 24 28 28 28 28 23 16 27 31 27 32 16 28 20 18 22 16 9 8 13 18 20
21 18 18 18 20 20 21 23 23 22 21 16 14 13 13 12 12 6 4 2 11 23 29 29 26 22 11 19 18 17 32 19 26 21 21 22 21 13 11 7 16 15 10
22 19 18 20 20 18 20 20 18 17 19 17 13 11 7 8 8 7 8 10 2 9 20 6 5 19 20 17 19 22 29 31 19 19 21 25 21 16 14 21 22 18 16
20 20 20 21 19 20 17 13 13 11 10 6 5 9 6 8 7 9 7 11 7 3 6 3 3 9 16 16 16 20 25 30 17 17 17 18 22 12 12 28 27 23 19
18 18 20 21 18 11 12 11 9 9 12 14 15 17 11 11 12 11 11 5 6 6 2 5 2 9 20 15 14 18 23 23 14 14 13 9 13 3 8 15 27 31 26
21 19 18 17 13 14 12 17 12 23 18 17 14 12 8 9 7 6 5 9 8 5 4 2 2 1 9 13 14 17 22 16 7 11 11 8 7 4 4 15 25 29 29
22 23 22 12 15 23 26 23 22 20 13 19 18 14 13 11 11 10 4 10 4 5 7 4 4 4 3 9 15 13 18 10 4 10 11 9 8 7 6 12 20 23 27
23 23 25 25 25 24 24 24 25 24 24 24 22 25 20 17 16 15 14 4 4 3 3 4 7 5 7 13 13 10 7 8 3 9 11 11 11 16 14 14 17 18 19
25 24 21 21 20 22 24 24 25 26 26 26 27 28 21 10 5 6 6 7 6 6 6 6 4 3 6 11 5 5 4 5 4 7 10 11 12 13 15 16 3 13 18
Wind_Direction
275 275 279 256 295 309 303 313 319 324 325 332 329 331 327 329 332 335 334 330 330 328 327 327 328 330 327 326 325 323 322 323 321 324 327 327 327 324 320 321 322 320 309
283 281 283 295 298 261 306 336 344 338 331 336 338 335 334 333 334 331 329 331 329 327 327 328 327 326 325 324 323 324 322 321 321 320 322 322 324 323 318 325 328 330 321
312 313 321 335 356 334 351 11 359 19 2 353 354 336 327 330 332 333 333 334 333 330 327 327 326 326 325 324 324 323 322 322 321 320 321 323 320 314 312 325 328 327 326
336 337 339 341 350 359 18 20 17 13 357 347 343 333 332 334 333 335 336 332 330 328 328 327 325 323 324 324 323 322 321 321 319 319 320 320 317 319 321 320 320 323 324
345 336 338 349 359 8 7 10 9 3 359 349 337 330 330 331 330 330 330 328 328 327 327 326 323 324 322 322 323 324 321 319 318 319 320 316 310 312 312 317 318 319 321
7 354 15 7 1 354 4 9 358 347 337 342 345 340 333 332 334 330 329 329 329 328 326 324 322 321 324 326 328 328 325 323 322 321 319 315 309 309 309 312 313 314 312
14 357 355 355 356 348 349 350 347 340 334 340 333 340 345 338 336 333 331 329 328 326 325 327 327 329 331 332 330 327 325 325 324 323 320 314 310 310 308 308 310 310 305
358 350 347 347 353 344 343 352 347 344 335 337 335 334 337 337 338 335 331 329 328 327 328 330 329 327 330 330 329 326 324 324 326 327 322 315 315 315 313 313 309 309 306
358 354 3 7 2 7 7 12 7 351 342 336 335 339 338 338 335 334 333 331 329 332 330 329 326 329 336 333 328 325 323 322 331 334 331 327 326 324 322 322 320 305 304
353 19 9 357 354 4 3 358 351 344 341 340 338 338 337 337 338 340 339 336 333 334 337 343 340 336 334 332 330 328 323 324 322 320 319 324 329 330 334 332 324 315 311
16 25 358 360 359 7 3 357 353 351 345 340 336 339 340 343 346 347 346 343 339 340 339 336 342 343 337 334 335 333 329 323 319 322 321 324 326 331 333 336 330 319 306
30 24 13 1 355 2 359 355 350 343 338 338 343 342 351 353 355 356 357 353 350 347 345 345 343 338 340 340 342 341 341 326 327 326 328 329 330 328 324 316 315 310 298
21 16 11 5 1 356 350 345 343 345 344 344 346 350 353 0 1 2 358 355 350 347 345 340 346 356 5 358 348 344 330 332 332 333 332 331 328 326 324 322 319 317 297
15 11 6 359 352 347 343 346 348 351 355 356 358 2 9 3 356 351 351 349 350 349 345 349 352 360 348 353 348 343 339 337 334 331 332 330 327 321 324 323 314 317 302
8 2 354 348 346 349 355 355 357 1 6 16 22 26 15 7 0 359 2 1 356 355 347 355 349 344 341 338 338 343 349 347 343 336 336 331 326 322 317 312 310 290 303
353 352 353 355 0 2 6 14 11 17 19 29 36 41 40 30 26 16 15 13 24 33 7 4 357 352 347 351 357 349 348 343 342 354 350 344 326 304 291 292 289 303 300
356 2 4 4 10 13 15 24 30 34 45 46 39 36 31 32 26 19 18 19 34 49 10 0 358 353 354 1 354 0 5 357 345 355 307 270 266 295 272 252 224 220 223
13 11 16 21 31 31 29 30 43 42 38 42 47 44 37 30 22 25 29 301 356 13 1 14 19 25 38 48 27 16 24 9 341 318 296 292 296 287 266 241 225 211 218
21 29 36 44 35 33 29 26 27 26 28 49 47 52 49 46 44 92 186 157 294 330 356 1 30 46 62 49 46 41 20 341 320 309 309 309 304 289 277 250 63 52 342
33 44 49 40 39 45 35 34 42 48 43 47 58 65 85 94 109 141 126 88 151 287 318 286 75 52 50 54 49 42 32 353 310 308 317 331 322 313 313 349 27 36 35
57 56 57 41 45 37 48 75 77 82 89 108 126 112 124 133 155 109 117 87 104 162 275 277 293 69 59 55 51 46 38 29 310 303 309 322 337 327 335 36 39 39 36
67 68 51 46 61 103 105 116 117 113 94 89 85 81 101 103 96 95 94 125 117 114 216 266 270 70 52 58 55 49 43 40 310 297 298 305 327 154 132 115 100 89 53
58 64 66 79 112 96 104 81 110 60 78 77 84 93 104 102 118 121 138 93 101 115 123 150 134 300 65 61 59 54 48 47 310 284 287 297 316 205 154 128 109 102 107
53 52 50 123 103 61 39 73 68 74 96 73 70 79 81 87 87 90 208 277 150 124 98 115 106 92 76 70 63 63 56 46 320 275 270 268 296 306 235 163 122 114 108
80 74 60 46 39 46 44 44 39 45 43 45 53 43 61 68 71 72 73 135 227 217 200 131 104 98 85 72 69 70 56 38 346 274 262 264 263 16 18 152 148 138 135
80 88 95 94 93 80 65 54 46 37 38 35 29 28 60 88 107 101 99 95 106 115 115 112 146 232 100 79 84 82 54 32 15 282 259 264 263 295 360 21 321 191 133